Location: Heisede
(52.2582°N, 9.8523°E)
Time: 07:07:01
(UTC+00:00)

USA 307 - Pass Details

Date: 13 January 2026
Orbit: 495 x 502 km, 54.0° (Epoch: 10 March)

Event Time Altitude Azimuth Distance (km) Brightness Sun altitude
Exits shadow 04:30:52 43° 62° (ENE) 715 3.7 -25.7°
Drops below altitude 10° 04:33:45 10° 79° (E) 1,711 6.3 -25.2°
Sets 04:35:57 0° 82° (E) 2,559 7.5 -24.9°
